Regional Weather Roundup
Issued by NWS

Home | Current Version | Previous Version | Text Only | Print | Product List | Glossary On
Versions: 1 2 3 4 5 6 7 8 9 10 11 12 13 14 15 16 17 18 19 20 21 22 23 24 25 26 27 28 29 30 31 32 33 34 35 36 37 38 39 40 41 42 43 44 45 46 47 48 49 50
498
ASUS43 KBIS 230810
RWRND

NORTH DAKOTA REGIONAL WEATHER ROUNDUP
NATIONAL WEATHER SERVICE BISMARCK ND
300 AM CDT MON OCT 23 2017

NOTE: "FAIR" INDICATES FEW OR NO CLOUDS BELOW 12,000 FEET WITH NO
SIGNIFICANT WEATHER AND/OR OBSTRUCTIONS TO VISIBILITY.


NDZ001>003-009>011-017-230900-
NORTHWEST NORTH DAKOTA

CITY           SKY/WX    TMP DP  RH WIND       PRES   REMARKS
WILLISTON        N/A    N/A N/A N/A MISG      29.91R
MINOT          PTCLDY    46  34  62 W22G32    29.77R
MINOT AFB      CLEAR     44  34  69 NW25G33   29.75R
$$

NDZ018>021-031>035-040>046-230900-
SOUTHWEST NORTH DAKOTA

CITY           SKY/WX    TMP DP  RH WIND       PRES   REMARKS
BISMARCK       CLOUDY    50  38  63 W14       29.83R
DICKINSON      CLOUDY    46  36  68 W26G35    29.90R
GARRISON         N/A     46  34  62 NW22G32   29.80R
HETTINGER ARPT PTCLDY    45  35  68 NW30G40   29.97R
$$

NDZ004>008-012>016-024-026-027-054-230900-
NORTHEAST NORTH DAKOTA

CITY           SKY/WX    TMP DP  RH WIND       PRES   REMARKS
GRAND FORKS    CLOUDY    55  48  77 SW13      29.59R
GRND FRKS AFB  MOCLDY    54  42  64 W12       29.60R
DEVILS LAKE    PTCLDY    48  36  63 W16       29.66R
$$

NDZ022-023-025-028>030-036>039-047>053-230900-
SOUTHEAST NORTH DAKOTA

CITY           SKY/WX    TMP DP  RH WIND       PRES   REMARKS
FARGO          MOCLDY    53  41  63 W13       29.65R
JAMESTOWN      PTCLDY    52  40  63 W20G28    29.71R
$$





USA.gov is the U.S. government's official web portal to all federal, state and local government web resources and services.